Probability
18 16 17 23 28 29 32 38 43 46 48 49 47 43 39 37 36 34 32 32 33 33 33 34 33 28 22 19 19 16 13 12 11 6 4 4 4 4 7 9 9 10 12
19 17 19 24 27 27 29 33 37 40 43 45 45 42 38 35 33 32 31 30 29 27 25 26 28 26 22 20 19 16 13 11 9 6 4 3 4 4 6 9 9 11 13
20 17 17 19 21 22 24 27 29 31 34 37 39 39 36 34 34 33 31 28 23 18 17 17 20 21 21 20 19 15 12 10 8 5 4 3 3 4 5 6 7 9 12
17 14 11 11 12 14 17 21 23 25 28 30 32 33 32 32 32 31 28 25 19 13 10 11 14 16 18 18 17 14 13 11 9 6 5 4 3 3 3 3 3 6 8
10 8 7 7 7 7 9 13 16 19 23 25 26 26 25 25 26 25 23 21 16 10 7 8 11 13 15 15 14 14 15 15 12 9 8 6 5 4 3 2 2 4 4
5 5 6 6 5 3 4 5 8 12 16 19 19 19 19 20 20 19 18 17 15 11 8 8 10 12 13 13 13 13 15 16 14 11 9 9 8 5 4 3 3 3 3
4 4 5 5 4 2 3 3 4 6 10 12 13 13 14 14 14 14 14 14 13 11 9 9 10 11 11 11 12 12 13 13 13 11 10 11 10 7 5 4 3 2 2
5 4 3 3 3 1 2 2 2 3 5 7 8 8 8 8 9 9 10 11 10 8 7 7 8 9 9 10 10 11 11 11 10 10 10 11 11 8 6 5 3 1 1
8 5 3 3 3 1 1 1 1 1 1 3 4 4 4 4 5 6 7 7 6 5 4 4 5 7 7 8 9 10 10 9 8 7 8 9 9 8 7 6 5 2 1
10 7 5 4 3 2 1 0 0 0 0 0 1 1 1 2 3 4 3 3 3 1 1 3 4 5 6 7 8 9 8 7 5 3 3 5 6 7 7 6 5 3 2
10 8 6 5 4 2 1 0 0 0 0 0 0 0 0 1 2 2 1 1 1 0 0 1 3 4 5 6 6 5 4 2 1 1 1 2 3 5 6 5 4 3 3
9 7 6 6 5 2 0 0 0 0 0 0 0 0 0 0 1 1 0 0 0 0 0 0 1 2 2 2 2 1 1 0 0 0 0 0 1 3 4 4 3 3 2
8 6 5 5 4 1 0 0 0 0 0 0 0 0 0 0 0 0 0 0 0 0 0 0 0 1 1 0 0 0 0 0 0 0 0 0 1 3 3 3 3 2 1
7 6 4 3 2 0 0 0 0 0 0 0 0 0 0 0 0 0 0 0 0 0 0 0 0 0 0 0 0 0 0 0 0 0 0 1 2 3 2 2 2 1 1
6 5 3 1 0 0 0 0 0 0 0 0 0 0 0 0 0 0 0 0 0 0 0 0 0 0 0 0 0 0 0 0 0 0 0 1 2 2 1 0 1 1 0
4 3 1 0 0 0 0 0 0 0 0 0 0 0 0 0 0 0 0 0 0 0 0 0 0 0 0 0 0 0 0 0 0 0 0 0 1 1 0 0 0 0 0
3 3 1 0 0 0 0 0 0 0 0 0 0 0 0 0 0 0 0 0 0 0 0 0 0 0 0 0 0 0 0 0 0 0 0 0 0 0 0 0 0 0 0
4 3 2 0 0 0 0 0 0 0 0 0 0 0 0 0 0 0 0 0 0 0 0 0 0 0 0 0 0 0 0 0 0 0 0 0 0 0 0 0 0 0 0
3 2 1 0 0 0 0 0 0 0 0 0 0 0 0 0 0 0 0 0 0 0 0 0 0 0 0 0 0 0 0 0 0 0 0 0 0 0 0 0 0 0 0
1 1 0 0 0 0 0 0 0 0 0 0 0 0 0 0 0 0 1 2 1 0 0 0 0 0 0 0 0 0 0 0 0 0 0 0 0 0 0 0 0 0 0
0 0 0 0 0 0 0 0 0 0 0 0 0 0 0 0 0 1 2 3 2 1 0 0 0 0 0 0 0 0 0 0 0 0 0 0 0 0 0 0 0 0 0
0 0 0 0 0 0 0 0 0 0 0 0 0 0 0 0 0 1 2 2 2 1 0 0 0 0 0 0 0 0 0 0 0 0 0 0 0 0 0 0 0 0 0
0 0 0 0 0 0 0 0 0 0 0 0 0 0 0 0 0 0 1 1 1 1 0 0 0 0 0 0 0 0 0 0 0 0 0 0 0 0 0 0 0 0 0
0 0 0 0 0 0 0 0 0 0 0 0 0 0 0 0 0 0 0 0 0 0 0 0 0 0 0 0 0 0 0 0 0 0 0 0 0 0 0 0 0 0 0
0 0 0 0 0 0 0 0 0 0 0 0 0 0 0 0 0 0 0 0 0 0 0 0 0 0 0 0 0 0 0 0 0 0 0 0 0 0 0 0 0 0 0
0 0 0 0 0 0 0 0 0 0 0 0 0 0 0 0 0 0 0 0 0 0 0 0 0 0 0 0 0 0 0 0 0 0 0 0 0 0 0 0 0 0 0
Wind_Speed
11 9 8 8 8 7 7 7 6 6 4 3 2 2 2 2 2 3 4 4 4 4 3 3 2 1 1 1 1 1 1 1 1 1 0 0 0 0 0 1 1 2 2
10 8 8 9 9 8 8 7 7 6 5 4 2 1 2 2 2 2 3 4 4 4 4 4 3 2 1 1 2 1 1 1 2 2 1 1 1 0 0 1 1 2 2
9 9 9 9 8 8 8 7 8 7 6 5 3 2 1 1 2 2 3 4 4 4 4 4 4 3 2 2 2 1 2 2 2 2 2 2 2 1 0 0 1 1 2
10 9 9 8 8 8 8 8 8 7 7 6 5 5 4 3 3 2 3 3 3 4 5 5 4 4 3 2 2 2 2 2 2 2 2 2 1 2 2 1 1 2 2
10 9 9 8 8 8 8 7 7 7 7 6 6 5 4 3 3 3 3 3 3 4 4 4 4 4 3 3 3 2 2 2 2 1 1 1 1 2 2 2 2 2 2
11 10 9 8 7 8 7 7 7 7 6 6 5 5 4 4 4 4 3 2 2 3 5 4 4 3 3 4 3 2 2 1 2 2 1 1 2 2 2 3 3 3 2
10 9 8 8 7 7 7 7 7 6 6 6 5 5 4 4 4 4 3 3 3 3 4 5 4 3 3 3 3 2 2 2 2 2 2 1 1 1 2 3 3 3 2
10 9 8 8 7 7 7 6 6 6 5 6 5 5 5 4 4 5 4 4 3 3 4 4 4 4 4 4 3 3 2 2 2 2 1 1 1 1 2 3 4 4 2
10 10 9 8 7 7 6 6 6 5 5 5 5 5 5 5 5 4 4 3 3 3 4 4 4 4 4 4 3 2 3 3 2 2 2 1 0 0 1 2 4 5 4
11 10 8 8 7 7 6 6 6 5 5 5 5 5 5 5 4 4 5 4 4 4 4 4 4 4 4 4 3 3 3 3 3 2 2 2 1 1 1 2 1 2 3
11 10 9 8 7 7 7 5 5 5 5 6 6 5 5 5 5 5 5 4 4 4 5 5 4 4 5 5 4 4 4 4 3 3 3 2 2 1 1 1 2 3 4
11 10 9 8 7 7 6 5 5 5 5 5 5 5 5 5 5 5 5 5 5 4 5 5 5 5 5 5 5 5 5 5 4 4 4 4 3 3 2 2 2 3 4
11 9 9 7 7 7 6 5 5 4 4 4 5 5 5 5 5 5 5 5 5 5 5 5 5 6 6 6 6 5 5 5 5 4 4 4 4 4 3 4 4 4 5
10 9 8 7 7 6 6 5 4 4 4 4 5 5 5 4 4 4 5 4 4 4 5 5 5 6 7 8 7 6 5 5 5 5 5 5 5 5 4 5 5 5 6
10 9 8 7 7 6 6 5 5 4 4 4 5 4 4 4 4 4 4 4 4 5 4 5 5 6 6 8 8 6 6 5 5 5 6 6 8 8 6 5 4 5 5
9 9 8 8 7 6 6 5 4 4 4 4 4 4 3 3 4 3 4 4 5 5 5 6 6 7 7 10 11 7 5 5 5 5 5 7 9 10 10 11 10 7 6
10 9 8 7 6 6 5 5 4 4 3 3 3 3 3 4 3 4 4 4 4 4 5 5 6 7 9 12 11 10 5 5 5 6 5 6 8 8 6 9 10 9 8
10 9 8 8 6 6 5 4 4 4 4 3 3 3 3 4 4 4 4 4 3 3 4 4 5 5 8 11 11 9 5 5 6 6 6 7 7 7 5 6 7 7 6
10 8 8 8 6 6 5 4 4 4 4 4 4 4 4 4 4 4 3 3 3 3 3 4 5 5 6 10 10 7 3 4 6 7 8 7 7 9 8 5 6 6 5
10 9 8 8 7 6 5 5 4 4 5 4 4 4 4 4 4 4 3 2 2 2 3 4 4 5 5 8 10 8 3 4 4 4 7 10 8 8 8 5 5 6 4
11 10 9 7 6 6 5 4 4 4 4 4 4 4 3 3 3 2 2 2 2 2 3 3 4 4 5 7 10 9 4 4 4 4 5 5 8 9 9 6 4 3 2
10 9 8 7 6 6 5 5 5 4 4 4 4 3 3 3 3 2 1 1 1 2 2 2 3 4 4 5 7 9 8 7 5 4 4 4 6 7 6 4 4 4 3
10 8 9 8 7 6 5 6 5 4 5 4 4 3 3 3 2 2 1 1 1 1 1 2 3 3 3 3 5 6 7 7 4 3 3 2 3 3 2 2 4 4 2
9 8 9 8 7 6 6 6 5 4 4 4 4 3 3 3 3 3 3 4 4 4 3 3 3 3 4 4 4 2 2 2 2 1 1 1 3 2 2 2 1 1 1
8 8 8 8 8 7 6 6 5 4 4 4 3 3 3 4 4 4 5 5 5 5 4 5 5 4 4 3 4 4 4 4 4 4 2 2 2 1 1 1 1 1 1
8 8 8 8 8 8 7 6 5 4 4 3 2 3 3 3 4 4 4 7 5 5 7 6 5 4 4 2 4 5 6 6 6 4 3 1 1 0 1 0 0 1 1
Wind_Direction
108 100 91 81 69 60 60 55 51 44 39 37 35 47 51 42 43 47 37 29 16 1 357 345 341 322 311 308 301 273 250 219 177 208 232 26 96 131 120 148 136 128 129
111 99 90 81 71 57 50 52 44 42 40 36 32 54 66 57 50 41 46 28 19 8 2 7 354 351 339 327 321 330 274 246 200 186 185 181 151 45 271 105 136 149 134
118 107 93 80 73 63 51 47 41 35 35 27 34 49 62 66 47 43 49 34 23 20 13 7 359 354 352 338 319 317 268 248 234 192 194 185 187 139 84 86 98 109 102
116 107 96 85 77 71 63 56 48 40 35 32 37 35 38 39 25 25 42 44 36 24 19 10 3 356 351 346 324 328 291 251 243 230 225 219 169 160 150 100 76 89 90
118 109 98 90 84 77 69 60 53 47 40 39 42 37 34 24 19 21 31 32 40 30 22 14 4 356 351 346 333 330 309 285 269 251 238 229 204 202 170 162 136 87 63
120 113 107 97 84 77 72 63 57 52 44 44 47 44 36 27 24 20 15 15 36 33 22 13 5 359 355 347 339 330 321 296 280 275 258 225 194 192 182 172 154 134 92
127 124 115 101 89 79 73 66 62 57 46 41 41 35 30 36 33 16 18 19 29 29 17 13 2 356 352 349 346 345 343 334 305 278 273 273 248 214 187 158 147 132 114
132 125 112 102 92 83 74 70 64 58 49 45 41 34 25 28 32 31 26 26 22 21 13 9 2 356 355 356 357 357 347 344 329 312 283 264 255 215 187 163 149 140 127
132 123 114 107 100 92 80 73 68 60 54 46 43 43 36 32 29 28 26 25 19 17 15 9 2 360 358 354 1 5 -0 1 7 355 349 338 316 236 180 156 160 154 157
130 123 118 112 103 97 88 76 69 59 52 48 39 42 36 33 30 31 32 29 23 17 6 6 4 8 8 5 7 12 14 18 17 21 25 20 9 32 118 140 140 132 133
132 129 125 118 111 105 98 90 79 68 58 52 45 38 31 31 35 35 29 26 22 17 10 4 11 19 16 11 14 17 21 26 26 28 37 37 44 48 56 92 106 106 107
128 128 126 121 117 109 99 88 78 68 63 61 56 48 41 37 37 33 27 24 21 19 20 18 16 22 21 15 21 21 28 29 30 30 36 36 48 54 62 79 102 113 114
127 126 123 121 115 107 99 92 81 68 62 67 64 56 45 40 37 34 33 30 26 26 25 26 24 25 23 21 24 26 33 32 38 39 41 42 55 57 59 70 82 99 105
133 128 124 119 111 108 104 99 87 72 65 64 61 54 47 42 40 36 35 35 35 37 29 28 28 31 33 26 23 26 36 39 44 50 55 53 60 62 66 75 81 95 104
137 134 131 125 122 118 113 103 89 74 66 65 61 54 48 43 44 41 33 26 31 48 38 34 35 37 40 26 20 22 38 39 45 53 64 70 73 73 72 81 89 99 107
140 137 132 127 126 123 119 110 101 91 77 73 71 64 54 48 48 53 45 37 35 39 40 43 44 41 35 20 24 26 30 34 45 56 64 80 77 77 78 82 82 90 103
143 139 131 126 124 121 116 115 112 100 88 78 71 69 64 58 48 56 54 47 41 40 48 50 56 55 32 22 21 22 30 41 43 49 51 63 66 64 73 83 82 78 79
136 131 128 124 122 119 118 120 112 101 91 81 70 64 66 64 49 51 52 49 47 45 51 53 56 61 39 23 19 16 38 47 51 57 60 68 60 43 48 81 84 83 72
127 127 129 127 127 125 127 121 105 100 92 83 74 64 56 59 52 54 50 55 59 53 63 62 59 61 45 25 20 18 42 57 54 57 52 54 61 37 41 72 83 85 84
125 128 129 128 129 130 128 116 109 99 87 80 75 72 65 65 62 56 49 50 51 56 72 71 64 61 53 33 28 21 47 67 69 76 73 56 50 43 45 60 72 76 70
128 131 131 130 131 128 124 117 111 107 101 91 85 80 70 73 74 60 47 47 55 60 76 85 84 70 58 49 39 34 36 32 54 67 70 54 40 41 39 49 66 72 31
132 132 129 127 129 130 128 117 110 112 105 96 92 84 69 62 78 74 48 53 78 101 101 105 101 91 70 47 40 39 41 34 45 55 63 59 39 33 25 33 28 12 352
135 133 131 130 132 132 130 119 117 116 111 106 96 91 79 64 63 62 68 69 55 64 88 92 94 98 99 77 44 37 36 36 44 45 45 40 19 4 360 0 342 337 334
136 140 139 138 135 133 131 125 128 126 116 114 111 111 106 90 62 42 43 47 36 33 34 55 68 77 74 53 28 20 62 70 55 26 347 300 300 299 313 310 289 290 42
142 145 143 142 140 138 135 136 132 126 126 129 133 129 115 99 82 66 44 52 53 46 38 30 35 45 62 39 22 17 21 18 22 340 298 249 229 214 203 190 179 147 126
141 141 143 141 142 142 141 143 141 141 146 155 159 151 145 147 142 125 99 58 70 73 67 57 54 68 77 62 14 9 2 354 354 341 296 268 257 137 84 25 92 107 84